Location: Unspecified
(0.0000°N, 0.0000°E)
Time: 11:47:33
(UTC+00:00)

Courier 1B Rocket - Pass Details

Date: 23 November 2019
Orbit: 920 x 1202 km, 28.2° (Epoch: 07 December)

Event Time Altitude Azimuth Distance (km) Brightness Sun altitude
Rises 23:40:52 0° 263° (W) 4,086 - -69.5°
Reaches altitude 10° 23:44:49 10° 246° (WSW) 3,102 - -69.6°
Maximum altitude 23:49:49 18° 205° (SSW) 2,488 - -69.5°
Drops below altitude 10° 23:54:42 10° 164° (SSE) 3,004 - -69.5°
Sets 23:58:28 0° 146° (SE) 3,910 - -69.3°
